This is the latest recevied weather packets stored in our database for station/object K7KAZ. If no packets are shown the sender has not sent any weather packets the latest 10 day(s).
| Time | Temp. | Humidity | Pressure | Rain* | Wind** | Luminosity | Snow |
|---|---|---|---|---|---|---|---|
| 1777997533 | 20° C | 48% | 1014.3 hPa | 0 mm | - | 412 W/m² | - |
| 1777997230 | 18.89° C | 50% | 1014.6 hPa | 0 mm | - | 603 W/m² | - |
| 1777996927 | 20° C | 50% | 1014.4 hPa | 0 mm | - | 738 W/m² | - |
| 1777996624 | 18.89° C | 52% | 1014.4 hPa | 0 mm | - | 245 W/m² | - |
| 1777996320 | 19.44° C | 51% | 1014.5 hPa | 0 mm | - | 323 W/m² | - |
| 1777996016 | 18.89° C | 52% | 1014.6 hPa | 0 mm | - | 599 W/m² | - |
| 1777995712 | 19.44° C | 52% | 1014.5 hPa | 0 mm | - | 365 W/m² | - |
| 1777995409 | 18.89° C | 54% | 1014.6 hPa | 0 mm | - | 356 W/m² | - |
| 1777995107 | 18.33° C | 56% | 1014.6 hPa | 0 mm | - | 191 W/m² | - |
| 1777994803 | 18.33° C | 58% | 1014.4 hPa | 0 mm | - | 168 W/m² | - |
| 1777994499 | 18.33° C | 58% | 1014.6 hPa | 0 mm | - | 143 W/m² | - |
| 1777994194 | 18.89° C | 57% | 1014.5 hPa | 0 mm | - | 98 W/m² | - |
| 1777993892 | 18.33° C | 57% | 1014.6 hPa | 0 mm | - | 99 W/m² | - |
| 1777993588 | 18.33° C | 57% | 1014.4 hPa | 0 mm | - | 111 W/m² | - |
| 1777993285 | 18.89° C | 57% | 1014.6 hPa | 0 mm | - | 159 W/m² | - |
| 1777992981 | 18.33° C | 57% | 1014.3 hPa | 0 mm | - | 136 W/m² | - |
| 1777992679 | 18.33° C | 56% | 1014.1 hPa | 0 mm | - | 127 W/m² | - |
| 1777992377 | 18.33° C | 57% | 1014.3 hPa | 0 mm | - | 97 W/m² | - |
| 1777992074 | 18.33° C | 56% | 1014.4 hPa | 0 mm | - | 87 W/m² | - |
| 1777991772 | 18.33° C | 56% | 1014 hPa | 0 mm | - | 109 W/m² | - |
| 1777991468 | 18.33° C | 54% | 1014.2 hPa | 0 mm | - | 117 W/m² | - |
| 1777991166 | 18.33° C | 54% | 1014.2 hPa | 0 mm | - | 102 W/m² | - |
| 1777990863 | 18.33° C | 55% | 1014.3 hPa | 0 mm | - | 99 W/m² | - |
| 1777990560 | 17.78° C | 55% | 1014.2 hPa | 0 mm | - | 92 W/m² | - |
| 1777989953 | 17.78° C | 56% | 1014.6 hPa | 0 mm | - | 76 W/m² | - |
* Rain latest hour (hover to see other rain measurements)
** Current wind speed in m/s (hover to see current wind gust speed)